| time (UTC) | temp F | wind direction | speed MPH | gust MPH | rain 1hr in | rain 24hr in | rain mn in | humidity % | barometer mb |
| 20260508063006 | 38 | 296 | 2.0 | 3.0 | 0.00 | 0.00 | 0.00 | 85 | 1013.4 |
| 20260508062506 | 38 | 283 | 2.0 | 3.0 | 0.00 | 0.00 | 0.00 | 85 | 1013.5 |
| 20260508062006 | 37 | 286 | 1.0 | 3.0 | 0.00 | 0.00 | 0.00 | 88 | 1013.5 |
| 20260508061506 | 37 | 0 | 1.0 | 2.0 | 0.00 | 0.00 | 0.00 | 89 | 1013.5 |
| 20260508061229 | 38 | 213 | 1.0 | 3.0 | 0.00 | 0.00 | 0.00 | 88 | 1013.6 |
| 20260508060506 | 38 | 208 | 1.0 | 3.0 | 0.00 | 0.00 | 0.00 | 86 | 1013.6 |
| 20260508060004 | 38 | 240 | 0.0 | 3.0 | 0.00 | 0.00 | 0.00 | 88 | 1013.6 |
| 20260508055720 | 39 | 0 | 0.0 | 1.0 | 0.00 | 0.00 | 0.00 | 86 | 1013.6 |
| 20260508055225 | 40 | 0 | 0.0 | 2.0 | 0.00 | 0.00 | 0.00 | 81 | 1013.7 |
| 20260508054504 | 40 | 0 | 0.0 | 2.0 | 0.00 | 0.00 | 0.00 | 80 | 1013.8 |
| 20260508054003 | 40 | 0 | 0.0 | 2.0 | 0.00 | 0.00 | 0.00 | 78 | 1013.8 |
| 20260508053500 | 40 | 0 | 0.0 | 2.0 | 0.00 | 0.00 | 0.00 | 79 | 1013.8 |
| 20260508053217 | 40 | 285 | 1.0 | 2.0 | 0.00 | 0.00 | 0.00 | 81 | 1014.0 |
| 20260508052457 | 40 | 0 | 1.0 | 3.0 | 0.00 | 0.00 | 0.00 | 81 | 1014.0 |
| 20260508051958 | 39 | 247 | 1.0 | 3.0 | 0.00 | 0.00 | 0.00 | 79 | 1013.9 |
| 20260508051721 | 38 | 296 | 1.0 | 3.0 | 0.00 | 0.00 | 0.00 | 88 | 1013.9 |
| 20260508050958 | 39 | 235 | 1.0 | 2.0 | 0.00 | 0.00 | 0.00 | 85 | 1013.9 |
| 20260508050459 | 39 | 283 | 0.0 | 2.0 | 0.00 | 0.00 | 0.00 | 81 | 1013.8 |
| 20260508050220 | 39 | 0 | 0.0 | 1.0 | 0.00 | 0.00 | 0.00 | 84 | 1013.8 |
| 20260508045459 | 39 | 0 | 0.0 | 1.0 | 0.00 | 0.00 | 0.00 | 82 | 1013.8 |
| 20260508044956 | 39 | 302 | 0.0 | 1.0 | 0.00 | 0.00 | 0.00 | 84 | 1013.9 |
| 20260508044456 | 40 | 231 | 0.0 | 1.0 | 0.00 | 0.00 | 0.00 | 83 | 1013.8 |
| 20260508043955 | 40 | 0 | 0.0 | 1.0 | 0.00 | 0.00 | 0.00 | 79 | 1013.8 |
| 20260508043453 | 40 | 0 | 0.0 | 1.0 | 0.00 | 0.00 | 0.00 | 78 | 1013.7 |
| 20260508042954 | 40 | 0 | 0.0 | 1.0 | 0.00 | 0.00 | 0.00 | 79 | 1013.7 |
| 20260508042454 | 40 | 0 | 0.0 | 1.0 | 0.00 | 0.00 | 0.00 | 77 | 1013.7 |
| 20260508041955 | 40 | 0 | 0.0 | 1.0 | 0.00 | 0.00 | 0.00 | 81 | 1013.7 |
| 20260508041454 | 40 | 0 | 0.0 | 0.0 | 0.00 | 0.00 | 0.00 | 78 | 1013.7 |
| 20260508040954 | 40 | 0 | 0.0 | 1.0 | 0.00 | 0.00 | 0.00 | 76 | 1013.7 |
| 20260508040455 | 41 | 0 | 0.0 | 1.0 | 0.00 | 0.00 | 0.00 | 77 | 1013.6 |
| 20260508035955 | 41 | 0 | 0.0 | 1.0 | 0.00 | 0.00 | 0.00 | 78 | 1013.6 |
| 20260508035717 | 42 | 0 | 0.0 | 2.0 | 0.00 | 0.00 | 0.00 | 76 | 1013.6 |
| 20260508034955 | 42 | 0 | 0.0 | 2.0 | 0.00 | 0.00 | 0.00 | 76 | 1013.6 |
| 20260508034719 | 43 | 291 | 0.0 | 2.0 | 0.00 | 0.00 | 0.00 | 70 | 1013.6 |
| 20260508033951 | 43 | 0 | 0.0 | 1.0 | 0.00 | 0.00 | 0.00 | 70 | 1013.5 |
| 20260508033451 | 43 | 0 | 0.0 | 0.0 | 0.00 | 0.00 | 0.00 | 69 | 1013.4 |
| 20260508032951 | 43 | 0 | 0.0 | 1.0 | 0.00 | 0.00 | 0.00 | 69 | 1013.4 |
| 20260508032451 | 43 | 0 | 0.0 | 1.0 | 0.00 | 0.00 | 0.00 | 68 | 1013.5 |
| 20260508031951 | 43 | 0 | 0.0 | 0.0 | 0.00 | 0.00 | 0.00 | 68 | 1013.5 |
| 20260508031451 | 44 | 0 | 0.0 | 1.0 | 0.00 | 0.00 | 0.00 | 67 | 1013.5 |
| 20260508030952 | 44 | 0 | 0.0 | 1.0 | 0.00 | 0.00 | 0.00 | 69 | 1013.5 |
| 20260508030451 | 44 | 0 | 0.0 | 2.0 | 0.00 | 0.00 | 0.00 | 69 | 1013.5 |
| 20260508025952 | 44 | 242 | 0.0 | 2.0 | 0.00 | 0.00 | 0.00 | 66 | 1013.6 |
| 20260508025452 | 44 | 0 | 0.0 | 2.0 | 0.00 | 0.00 | 0.00 | 71 | 1013.6 |
| 20260508024949 | 45 | 229 | 0.0 | 2.0 | 0.00 | 0.00 | 0.00 | 70 | 1013.6 |
| 20260508024448 | 45 | 0 | 0.0 | 2.0 | 0.00 | 0.00 | 0.00 | 66 | 1013.6 |
| 20260508023946 | 45 | 309 | 1.0 | 2.0 | 0.00 | 0.00 | 0.00 | 66 | 1013.6 |
| 20260508023708 | 45 | 250 | 1.0 | 2.0 | 0.00 | 0.00 | 0.00 | 66 | 1013.7 |
| 20260508022946 | 44 | 274 | 0.0 | 2.0 | 0.00 | 0.00 | 0.00 | 66 | 1013.6 |
| 20260508022447 | 44 | 0 | 0.0 | 2.0 | 0.00 | 0.00 | 0.00 | 70 | 1013.6 |
| 20260508021946 | 45 | 234 | 0.0 | 2.0 | 0.00 | 0.00 | 0.00 | 67 | 1013.6 |
| 20260508021446 | 45 | 0 | 1.0 | 3.0 | 0.00 | 0.00 | 0.00 | 68 | 1013.5 |
| 20260508020947 | 45 | 289 | 1.0 | 3.0 | 0.00 | 0.00 | 0.00 | 64 | 1013.5 |
| 20260508020707 | 45 | 290 | 0.0 | 2.0 | 0.00 | 0.00 | 0.00 | 66 | 1013.4 |
| 20260508020205 | 46 | 0 | 0.0 | 2.0 | 0.00 | 0.00 | 0.00 | 64 | 1013.4 |
| 20260508015441 | 46 | 291 | 1.0 | 3.0 | 0.00 | 0.00 | 0.00 | 66 | 1013.3 |
| 20260508014941 | 46 | 0 | 1.0 | 3.0 | 0.00 | 0.00 | 0.00 | 66 | 1013.2 |
| 20260508014439 | 47 | 249 | 1.0 | 3.0 | 0.00 | 0.00 | 0.00 | 64 | 1013.2 |
| 20260508013938 | 47 | 279 | 1.0 | 3.0 | 0.00 | 0.00 | 0.00 | 61 | 1013.2 |
| 20260508013438 | 48 | 0 | 1.0 | 3.0 | 0.00 | 0.00 | 0.00 | 60 | 1013.1 |
| 20260508012936 | 48 | 263 | 2.0 | 3.0 | 0.00 | 0.00 | 0.00 | 60 | 1013.1 |
| 20260508012655 | 48 | 280 | 2.0 | 3.0 | 0.00 | 0.00 | 0.00 | 58 | 1013.0 |
| 20260508011936 | 49 | 262 | 1.0 | 3.0 | 0.00 | 0.00 | 0.00 | 59 | 1012.9 |
| 20260508011436 | 49 | 276 | 1.0 | 3.0 | 0.00 | 0.00 | 0.00 | 59 | 1012.9 |
| 20260508010935 | 49 | 0 | 2.0 | 5.0 | 0.00 | 0.00 | 0.00 | 58 | 1012.8 |
| 20260508010433 | 49 | 299 | 2.0 | 5.0 | 0.00 | 0.00 | 0.00 | 58 | 1012.8 |
| 20260508005933 | 50 | 274 | 2.0 | 4.0 | 0.00 | 0.00 | 0.00 | 59 | 1012.8 |
| 20260508005433 | 50 | 246 | 2.0 | 3.0 | 0.00 | 0.00 | 0.00 | 59 | 1012.8 |
| 20260508004933 | 51 | 275 | 2.0 | 4.0 | 0.00 | 0.00 | 0.00 | 56 | 1012.7 |
| 20260508004652 | 51 | 0 | 2.0 | 4.0 | 0.00 | 0.00 | 0.00 | 55 | 1012.7 |
| 20260508003934 | 51 | 280 | 3.0 | 8.0 | 0.00 | 0.00 | 0.00 | 55 | 1012.6 |
| 20260508003704 | 52 | 311 | 3.0 | 8.0 | 0.00 | 0.00 | 0.00 | 54 | 1012.6 |
| 20260508002934 | 52 | 280 | 3.0 | 7.0 | 0.00 | 0.00 | 0.00 | 54 | 1012.6 |
| 20260508002657 | 52 | 248 | 3.0 | 7.0 | 0.00 | 0.00 | 0.00 | 54 | 1012.5 |
| 20260508001933 | 52 | 277 | 3.0 | 6.0 | 0.00 | 0.00 | 0.00 | 54 | 1012.5 |
| 20260508001430 | 53 | 307 | 3.0 | 8.0 | 0.00 | 0.00 | 0.00 | 53 | 1012.3 |
| 20260508000929 | 53 | 262 | 3.0 | 8.0 | 0.00 | 0.00 | 0.00 | 52 | 1012.2 |
| 20260508000430 | 54 | 334 | 3.0 | 7.0 | 0.00 | 0.00 | 0.00 | 53 | 1012.1 |
| 20260507235930 | 54 | 318 | 4.0 | 9.0 | 0.00 | 0.00 | 0.00 | 50 | 1012.0 |
| 20260507235647 | 55 | 286 | 4.0 | 9.0 | 0.00 | 0.00 | 0.00 | 51 | 1012.1 |
| 20260507235156 | 55 | 290 | 5.0 | 10.0 | 0.00 | 0.00 | 0.00 | 50 | 1011.9 |
| 20260507234431 | 55 | 302 | 5.0 | 10.0 | 0.00 | 0.00 | 0.00 | 50 | 1011.9 |
| 20260507233931 | 56 | 243 | 6.0 | 12.0 | 0.00 | 0.00 | 0.00 | 49 | 1011.9 |
| 20260507233430 | 56 | 335 | 7.0 | 13.0 | 0.00 | 0.00 | 0.00 | 48 | 1011.8 |
| 20260507232427 | 56 | 204 | 5.0 | 12.0 | 0.00 | 0.00 | 0.00 | 47 | 1011.8 |
| 20260507232149 | 57 | 288 | 5.0 | 12.0 | 0.00 | 0.00 | 0.00 | 47 | 1011.7 |
| 20260507231428 | 57 | 297 | 5.0 | 10.0 | 0.00 | 0.00 | 0.00 | 45 | 1011.6 |
| 20260507230427 | 57 | 271 | 6.0 | 14.0 | 0.00 | 0.00 | 0.00 | 45 | 1011.6 |
| 20260507225928 | 58 | 263 | 6.0 | 12.0 | 0.00 | 0.00 | 0.00 | 45 | 1011.5 |
| 20260507225428 | 58 | 279 | 6.0 | 12.0 | 0.00 | 0.00 | 0.00 | 43 | 1011.5 |
| 20260507224928 | 58 | 276 | 6.0 | 13.0 | 0.00 | 0.00 | 0.00 | 44 | 1011.4 |
| 20260507224429 | 57 | 287 | 6.0 | 13.0 | 0.00 | 0.00 | 0.00 | 44 | 1011.3 |
| 20260507223928 | 58 | 281 | 5.0 | 10.0 | 0.00 | 0.00 | 0.00 | 44 | 1011.3 |
| 20260507223428 | 59 | 308 | 5.0 | 13.0 | 0.00 | 0.00 | 0.00 | 43 | 1011.2 |
| 20260507222425 | 59 | 270 | 7.0 | 17.0 | 0.00 | 0.00 | 0.00 | 41 | 1011.2 |
| 20260507221926 | 59 | 257 | 7.0 | 17.0 | 0.00 | 0.00 | 0.00 | 42 | 1010.9 |
| 20260507221425 | 60 | 290 | 6.0 | 10.0 | 0.00 | 0.00 | 0.00 | 43 | 1011.1 |
| 20260507221154 | 59 | 271 | 5.0 | 10.0 | 0.00 | 0.00 | 0.00 | 42 | 1011.1 |
| 20260507220426 | 59 | 287 | 5.0 | 9.0 | 0.00 | 0.00 | 0.00 | 44 | 1011.0 |
| 20260507215926 | 58 | 288 | 6.0 | 10.0 | 0.00 | 0.00 | 0.00 | 44 | 1011.0 |
| 20260507215427 | 59 | 290 | 6.0 | 12.0 | 0.00 | 0.00 | 0.00 | 43 | 1010.9 |
| 20260507214926 | 59 | 235 | 7.0 | 13.0 | 0.00 | 0.00 | 0.00 | 43 | 1010.8 |
| 20260507214425 | 60 | 231 | 7.0 | 13.0 | 0.00 | 0.00 | 0.00 | 43 | 1010.7 |
| 20260507213924 | 60 | 266 | 7.0 | 13.0 | 0.00 | 0.00 | 0.00 | 43 | 1010.6 |
| 20260507213422 | 60 | 271 | 6.0 | 11.0 | 0.00 | 0.00 | 0.00 | 45 | 1010.7 |
| 20260507212919 | 60 | 270 | 6.0 | 10.0 | 0.00 | 0.00 | 0.00 | 43 | 1010.6 |
| 20260507212418 | 60 | 266 | 6.0 | 10.0 | 0.00 | 0.00 | 0.00 | 42 | 1010.7 |
| 20260507211919 | 60 | 290 | 6.0 | 11.0 | 0.00 | 0.00 | 0.00 | 43 | 1010.6 |
| 20260507211648 | 60 | 252 | 6.0 | 12.0 | 0.00 | 0.00 | 0.00 | 42 | 1010.5 |
| 20260507210919 | 60 | 279 | 6.0 | 12.0 | 0.00 | 0.00 | 0.00 | 43 | 1010.5 |
| 20260507210419 | 59 | 271 | 6.0 | 11.0 | 0.00 | 0.00 | 0.00 | 42 | 1010.4 |
| 20260507205920 | 59 | 311 | 7.0 | 12.0 | 0.00 | 0.00 | 0.00 | 43 | 1010.5 |
| 20260507205419 | 60 | 268 | 7.0 | 13.0 | 0.00 | 0.00 | 0.00 | 43 | 1010.5 |
| 20260507204920 | 60 | 301 | 6.0 | 13.0 | 0.00 | 0.00 | 0.00 | 43 | 1010.3 |
| 20260507204419 | 60 | 275 | 5.0 | 10.0 | 0.00 | 0.00 | 0.00 | 45 | 1010.4 |
| 20260507203916 | 59 | 225 | 5.0 | 10.0 | 0.00 | 0.00 | 0.00 | 43 | 1010.4 |
| 20260507203641 | 60 | 270 | 5.0 | 10.0 | 0.00 | 0.00 | 0.00 | 45 | 1010.4 |
| 20260507202917 | 60 | 299 | 5.0 | 11.0 | 0.00 | 0.00 | 0.00 | 45 | 1010.4 |
| 20260507202418 | 59 | 243 | 5.0 | 11.0 | 0.00 | 0.00 | 0.00 | 45 | 1010.3 |
| 20260507201917 | 58 | 294 | 6.0 | 11.0 | 0.00 | 0.00 | 0.00 | 45 | 1010.3 |
| 20260507201417 | 60 | 293 | 7.0 | 12.0 | 0.00 | 0.00 | 0.00 | 44 | 1010.4 |
| 20260507200918 | 60 | 270 | 7.0 | 12.0 | 0.00 | 0.00 | 0.00 | 44 | 1010.5 |
| 20260507200636 | 61 | 232 | 6.0 | 12.0 | 0.00 | 0.00 | 0.00 | 43 | 1010.3 |
| 20260507195917 | 60 | 213 | 4.0 | 9.0 | 0.00 | 0.00 | 0.00 | 45 | 1010.6 |
| 20260507195418 | 59 | 261 | 5.0 | 10.0 | 0.00 | 0.00 | 0.00 | 44 | 1010.7 |
| 20260507195138 | 59 | 258 | 6.0 | 11.0 | 0.00 | 0.00 | 0.00 | 45 | 1010.7 |
| 20260507194642 | 59 | 265 | 6.0 | 11.0 | 0.00 | 0.00 | 0.00 | 44 | 1010.6 |
| 20260507193915 | 58 | 275 | 6.0 | 11.0 | 0.00 | 0.00 | 0.00 | 45 | 1010.7 |
| 20260507193415 | 59 | 272 | 6.0 | 10.0 | 0.00 | 0.00 | 0.00 | 46 | 1010.8 |
| 20260507192915 | 59 | 274 | 7.0 | 14.0 | 0.00 | 0.00 | 0.00 | 45 | 1010.8 |
| 20260507192415 | 60 | 221 | 8.0 | 14.0 | 0.00 | 0.00 | 0.00 | 44 | 1010.8 |
| 20260507191915 | 61 | 244 | 6.0 | 14.0 | 0.00 | 0.00 | 0.00 | 44 | 1010.8 |
| 20260507191415 | 61 | 210 | 6.0 | 16.0 | 0.00 | 0.00 | 0.00 | 45 | 1010.9 |
| 20260507190916 | 60 | 74 | 6.0 | 16.0 | 0.00 | 0.00 | 0.00 | 43 | 1011.0 |
| 20260507190415 | 60 | 286 | 6.0 | 13.0 | 0.00 | 0.00 | 0.00 | 43 | 1010.9 |
| 20260507185913 | 60 | 302 | 6.0 | 13.0 | 0.00 | 0.00 | 0.00 | 44 | 1011.0 |
| 20260507185413 | 60 | 282 | 6.0 | 12.0 | 0.00 | 0.00 | 0.00 | 44 | 1010.9 |
| 20260507184910 | 59 | 294 | 5.0 | 10.0 | 0.00 | 0.00 | 0.00 | 45 | 1010.9 |
| 20260507184409 | 58 | 282 | 5.0 | 13.0 | 0.00 | 0.00 | 0.00 | 44 | 1010.9 |
| 20260507183910 | 59 | 283 | 5.0 | 13.0 | 0.00 | 0.00 | 0.00 | 47 | 1011.0 |
| 20260507183410 | 59 | 213 | 6.0 | 14.0 | 0.00 | 0.00 | 0.00 | 47 | 1011.0 |
| 20260507182910 | 59 | 294 | 6.0 | 14.0 | 0.00 | 0.00 | 0.00 | 44 | 1011.1 |
| 20260507182411 | 59 | 227 | 6.0 | 12.0 | 0.00 | 0.00 | 0.00 | 45 | 1011.1 |
| 20260507181911 | 59 | 274 | 6.0 | 14.0 | 0.00 | 0.00 | 0.00 | 44 | 1011.0 |
| 20260507181638 | 59 | 280 | 6.0 | 14.0 | 0.00 | 0.00 | 0.00 | 45 | 1011.1 |
| 20260507180911 | 58 | 224 | 5.0 | 10.0 | 0.00 | 0.00 | 0.00 | 44 | 1011.0 |
| 20260507180407 | 58 | 250 | 5.0 | 10.0 | 0.00 | 0.00 | 0.00 | 47 | 1011.0 |
| 20260507175908 | 58 | 310 | 6.0 | 12.0 | 0.00 | 0.00 | 0.00 | 47 | 1011.2 |
| 20260507175407 | 58 | 256 | 5.0 | 12.0 | 0.00 | 0.00 | 0.00 | 46 | 1011.2 |
| 20260507174908 | 58 | 276 | 6.0 | 13.0 | 0.00 | 0.00 | 0.00 | 49 | 1011.3 |
| 20260507174408 | 58 | 305 | 7.0 | 13.0 | 0.00 | 0.00 | 0.00 | 46 | 1011.3 |
| 20260507173908 | 58 | 255 | 6.0 | 13.0 | 0.00 | 0.00 | 0.00 | 47 | 1011.3 |
| 20260507173634 | 58 | 241 | 5.0 | 13.0 | 0.00 | 0.00 | 0.00 | 45 | 1011.3 |
| 20260507172908 | 58 | 289 | 6.0 | 11.0 | 0.00 | 0.00 | 0.00 | 46 | 1011.4 |
| 20260507172408 | 58 | 298 | 6.0 | 11.0 | 0.00 | 0.00 | 0.00 | 47 | 1011.5 |
| 20260507171908 | 57 | 276 | 6.0 | 11.0 | 0.00 | 0.00 | 0.00 | 47 | 1011.5 |
| 20260507171409 | 57 | 269 | 6.0 | 11.0 | 0.00 | 0.00 | 0.00 | 48 | 1011.5 |
| 20260507170906 | 57 | 262 | 5.0 | 10.0 | 0.00 | 0.00 | 0.00 | 48 | 1011.7 |
| 20260507170403 | 57 | 234 | 5.0 | 12.0 | 0.00 | 0.00 | 0.00 | 48 | 1011.7 |
| 20260507165903 | 56 | 267 | 5.0 | 12.0 | 0.00 | 0.00 | 0.00 | 50 | 1011.8 |
| 20260507165403 | 57 | 246 | 6.0 | 12.0 | 0.00 | 0.00 | 0.00 | 48 | 1011.8 |
| 20260507164903 | 56 | 320 | 6.0 | 12.0 | 0.00 | 0.00 | 0.00 | 48 | 1011.9 |
| 20260507164403 | 57 | 273 | 5.0 | 9.0 | 0.00 | 0.01 | 0.00 | 50 | 1012.0 |
| 20260507163903 | 56 | 267 | 6.0 | 13.0 | 0.00 | 0.01 | 0.00 | 51 | 1012.0 |
| 20260507163403 | 56 | 297 | 6.0 | 13.0 | 0.00 | 0.01 | 0.00 | 50 | 1012.0 |
| 20260507163127 | 56 | 245 | 5.0 | 10.0 | 0.00 | 0.01 | 0.00 | 50 | 1012.0 |
| 20260507162404 | 56 | 298 | 5.0 | 10.0 | 0.00 | 0.01 | 0.00 | 50 | 1012.0 |
| 20260507162123 | 56 | 247 | 5.0 | 9.0 | 0.00 | 0.01 | 0.00 | 51 | 1012.0 |
| 20260507161404 | 57 | 303 | 5.0 | 9.0 | 0.00 | 0.01 | 0.00 | 52 | 1012.0 |
| 20260507160902 | 56 | 235 | 4.0 | 9.0 | 0.00 | 0.01 | 0.00 | 54 | 1012.0 |
| 20260507160403 | 56 | 224 | 4.0 | 11.0 | 0.00 | 0.01 | 0.00 | 52 | 1012.1 |
| 20260507155902 | 56 | 291 | 4.0 | 11.0 | 0.00 | 0.01 | 0.00 | 54 | 1012.1 |
| 20260507155402 | 56 | 219 | 5.0 | 13.0 | 0.00 | 0.01 | 0.00 | 52 | 1012.1 |
| 20260507155128 | 56 | 226 | 5.0 | 13.0 | 0.00 | 0.01 | 0.00 | 52 | 1012.2 |
| 20260507154402 | 56 | 274 | 5.0 | 9.0 | 0.00 | 0.01 | 0.00 | 52 | 1012.2 |
| 20260507154119 | 55 | 335 | 5.0 | 10.0 | 0.00 | 0.01 | 0.00 | 53 | 1012.2 |
| 20260507153625 | 55 | 223 | 5.0 | 12.0 | 0.00 | 0.01 | 0.00 | 53 | 1012.3 |
| 20260507153125 | 54 | 287 | 5.0 | 12.0 | 0.00 | 0.01 | 0.00 | 56 | 1012.3 |
| 20260507152403 | 53 | 268 | 4.0 | 11.0 | 0.00 | 0.01 | 0.00 | 55 | 1012.2 |
| 20260507151859 | 53 | 335 | 4.0 | 7.0 | 0.00 | 0.01 | 0.00 | 58 | 1012.2 |
| 20260507151359 | 54 | 287 | 4.0 | 7.0 | 0.00 | 0.01 | 0.00 | 59 | 1012.3 |
| 20260507150900 | 53 | 244 | 3.0 | 6.0 | 0.00 | 0.01 | 0.00 | 57 | 1012.3 |
| 20260507150359 | 54 | 337 | 3.0 | 6.0 | 0.00 | 0.01 | 0.00 | 57 | 1012.5 |
| 20260507145900 | 54 | 270 | 3.0 | 6.0 | 0.00 | 0.01 | 0.00 | 58 | 1012.5 |
| 20260507145400 | 54 | 168 | 4.0 | 9.0 | 0.00 | 0.01 | 0.00 | 61 | 1012.6 |
| 20260507144900 | 54 | 204 | 5.0 | 10.0 | 0.00 | 0.01 | 0.00 | 61 | 1012.7 |
| 20260507144400 | 53 | 212 | 4.0 | 10.0 | 0.00 | 0.01 | 0.00 | 57 | 1012.7 |
| 20260507143859 | 53 | 289 | 4.0 | 9.0 | 0.00 | 0.01 | 0.00 | 60 | 1012.8 |
| 20260507143359 | 53 | 231 | 4.0 | 9.0 | 0.00 | 0.01 | 0.00 | 62 | 1012.9 |
| 20260507142857 | 54 | 223 | 3.0 | 10.0 | 0.00 | 0.01 | 0.00 | 63 | 1012.9 |
| 20260507142356 | 53 | 319 | 4.0 | 10.0 | 0.00 | 0.01 | 0.00 | 63 | 1012.9 |
| 20260507141857 | 54 | 267 | 3.0 | 10.0 | 0.00 | 0.01 | 0.00 | 62 | 1013.0 |
| 20260507141356 | 54 | 226 | 3.0 | 6.0 | 0.00 | 0.01 | 0.00 | 63 | 1013.0 |
| 20260507140857 | 54 | 201 | 2.0 | 6.0 | 0.00 | 0.01 | 0.00 | 63 | 1013.0 |
| 20260507140354 | 53 | 159 | 3.0 | 7.0 | 0.00 | 0.01 | 0.00 | 63 | 1013.1 |
| 20260507135855 | 53 | 229 | 4.0 | 9.0 | 0.00 | 0.01 | 0.00 | 64 | 1013.2 |
| 20260507135615 | 53 | 279 | 4.0 | 9.0 | 0.00 | 0.01 | 0.00 | 65 | 1013.3 |
| 20260507135116 | 53 | 270 | 3.0 | 8.0 | 0.00 | 0.01 | 0.00 | 64 | 1013.3 |
| 20260507134620 | 53 | 136 | 3.0 | 8.0 | 0.00 | 0.01 | 0.00 | 66 | 1013.4 |
| 20260507133854 | 52 | 166 | 3.0 | 8.0 | 0.00 | 0.01 | 0.00 | 67 | 1013.5 |
| 20260507133351 | 52 | 307 | 3.0 | 9.0 | 0.00 | 0.01 | 0.00 | 68 | 1013.5 |
| 20260507132852 | 52 | 178 | 3.0 | 9.0 | 0.00 | 0.01 | 0.00 | 67 | 1013.5 |
| 20260507132353 | 52 | 149 | 3.0 | 6.0 | 0.00 | 0.01 | 0.00 | 70 | 1013.5 |
| 20260507131852 | 51 | 192 | 2.0 | 6.0 | 0.00 | 0.01 | 0.00 | 68 | 1013.5 |
| 20260507131349 | 51 | 214 | 3.0 | 7.0 | 0.00 | 0.01 | 0.00 | 69 | 1013.6 |
| 20260507130850 | 51 | 194 | 3.0 | 7.0 | 0.00 | 0.01 | 0.00 | 71 | 1013.6 |
| 20260507130350 | 50 | 144 | 3.0 | 6.0 | 0.00 | 0.01 | 0.00 | 70 | 1013.6 |
| 20260507125851 | 50 | 239 | 3.0 | 5.0 | 0.00 | 0.01 | 0.00 | 71 | 1013.6 |
| 20260507125351 | 49 | 171 | 2.0 | 5.0 | 0.00 | 0.01 | 0.00 | 76 | 1013.6 |
| 20260507124850 | 49 | 222 | 2.0 | 5.0 | 0.00 | 0.01 | 0.00 | 77 | 1013.5 |
| 20260507124350 | 48 | 216 | 3.0 | 5.0 | 0.00 | 0.01 | 0.00 | 77 | 1013.5 |
| 20260507123849 | 48 | 261 | 3.0 | 5.0 | 0.00 | 0.01 | 0.00 | 77 | 1013.5 |
| 20260507123347 | 47 | 235 | 3.0 | 5.0 | 0.00 | 0.01 | 0.00 | 78 | 1013.5 |
| 20260507122847 | 47 | 265 | 2.0 | 4.0 | 0.00 | 0.01 | 0.00 | 79 | 1013.5 |
| 20260507122347 | 47 | 189 | 2.0 | 3.0 | 0.00 | 0.01 | 0.00 | 79 | 1013.5 |
| 20260507121847 | 47 | 243 | 2.0 | 3.0 | 0.00 | 0.02 | 0.00 | 80 | 1013.5 |
| 20260507121607 | 46 | 256 | 1.0 | 3.0 | 0.00 | 0.02 | 0.00 | 82 | 1013.4 |
| 20260507120846 | 46 | 0 | 1.0 | 3.0 | 0.00 | 0.02 | 0.00 | 86 | 1013.4 |
| 20260507120347 | 45 | 226 | 1.0 | 3.0 | 0.00 | 0.02 | 0.00 | 86 | 1013.4 |
| 20260507115848 | 45 | 238 | 1.0 | 2.0 | 0.00 | 0.02 | 0.00 | 87 | 1013.4 |
| 20260507115610 | 44 | 0 | 0.0 | 1.0 | 0.00 | 0.02 | 0.00 | 91 | 1013.4 |
| 20260507114347 | 42 | 0 | 0.0 | 0.0 | 0.00 | 0.02 | 0.00 | 94 | 1013.3 |
| 20260507113847 | 41 | 0 | 0.0 | 0.0 | 0.00 | 0.03 | 0.00 | 96 | 1013.3 |
| 20260507113348 | 41 | 0 | 0.0 | 2.0 | 0.00 | 0.04 | 0.00 | 97 | 1013.3 |
| 20260507113109 | 40 | 0 | 0.0 | 2.0 | 0.00 | 0.05 | 0.00 | 98 | 1013.4 |
| 20260507112608 | 39 | 0 | 0.0 | 1.0 | 0.00 | 0.06 | 0.00 | 98 | 1013.3 |
| 20260507111844 | 39 | 0 | 0.0 | 1.0 | 0.00 | 0.06 | 0.00 | 99 | 1013.2 |
| 20260507110845 | 38 | 280 | 0.0 | 1.0 | 0.00 | 0.06 | 0.00 | 99 | 1013.1 |
| 20260507110609 | 38 | 0 | 0.0 | 1.0 | 0.00 | 0.06 | 0.00 | 99 | 1013.1 |
| 20260507105845 | 37 | 0 | 0.0 | 0.0 | 0.00 | 0.06 | 0.00 | 100 | 1013.0 |
| 20260507105345 | 37 | 0 | 0.0 | 0.0 | 0.00 | 0.06 | 0.00 | 100 | 1013.0 |
| 20260507104845 | 37 | 0 | 0.0 | 0.0 | 0.00 | 0.06 | 0.00 | 99 | 1012.9 |
| 20260507104345 | 36 | 0 | 0.0 | 1.0 | 0.00 | 0.06 | 0.00 | 99 | 1012.8 |
| 20260507104117 | 36 | 0 | 0.0 | 1.0 | 0.00 | 0.06 | 0.00 | 99 | 1012.8 |
| 20260507103346 | 36 | 0 | 0.0 | 1.0 | 0.00 | 0.06 | 0.00 | 99 | 1012.8 |
| 20260507102844 | 36 | 219 | 0.0 | 1.0 | 0.00 | 0.06 | 0.00 | 99 | 1012.7 |
| 20260507102342 | 36 | 0 | 0.0 | 0.0 | 0.00 | 0.06 | 0.00 | 99 | 1012.7 |
| 20260507101843 | 36 | 0 | 0.0 | 0.0 | 0.00 | 0.06 | 0.00 | 99 | 1012.7 |
| 20260507101343 | 36 | 0 | 0.0 | 0.0 | 0.00 | 0.06 | 0.00 | 100 | 1012.7 |
| 20260507100844 | 37 | 0 | 0.0 | 0.0 | 0.00 | 0.06 | 0.00 | 100 | 1012.7 |
| 20260507100343 | 37 | 0 | 0.0 | 1.0 | 0.00 | 0.06 | 0.00 | 100 | 1012.7 |
| 20260507095843 | 37 | 0 | 0.0 | 1.0 | 0.00 | 0.06 | 0.00 | 100 | 1012.8 |
| 20260507095600 | 37 | 0 | 0.0 | 1.0 | 0.00 | 0.07 | 0.00 | 100 | 1012.7 |
| 20260507094843 | 37 | 234 | 0.0 | 1.0 | 0.00 | 0.09 | 0.00 | 99 | 1012.7 |
| 20260507094344 | 37 | 218 | 0.0 | 3.0 | 0.00 | 0.09 | 0.00 | 99 | 1012.6 |
| 20260507093844 | 38 | 0 | 1.0 | 3.0 | 0.00 | 0.09 | 0.00 | 100 | 1012.6 |
| 20260507093341 | 38 | 292 | 1.0 | 3.0 | 0.00 | 0.10 | 0.00 | 100 | 1012.6 |
| 20260507092841 | 37 | 0 | 0.0 | 1.0 | 0.00 | 0.10 | 0.00 | 99 | 1012.6 |
| 20260507092338 | 37 | 0 | 0.0 | 1.0 | 0.00 | 0.11 | 0.00 | 100 | 1012.6 |
| 20260507091838 | 38 | 0 | 0.0 | 2.0 | 0.00 | 0.12 | 0.00 | 100 | 1012.6 |
| 20260507091338 | 38 | 0 | 0.0 | 2.0 | 0.00 | 0.13 | 0.00 | 99 | 1012.6 |
| 20260507091104 | 38 | 196 | 1.0 | 2.0 | 0.00 | 0.13 | 0.00 | 100 | 1012.5 |
| 20260507090339 | 38 | 281 | 1.0 | 2.0 | 0.00 | 0.13 | 0.00 | 99 | 1012.5 |
| 20260507085839 | 38 | 213 | 0.0 | 2.0 | 0.00 | 0.14 | 0.00 | 100 | 1012.6 |
| 20260507085338 | 38 | 0 | 0.0 | 2.0 | 0.00 | 0.15 | 0.00 | 99 | 1012.6 |
| 20260507084839 | 38 | 0 | 0.0 | 1.0 | 0.00 | 0.15 | 0.00 | 99 | 1012.7 |
| 20260507084338 | 38 | 0 | 0.0 | 1.0 | 0.00 | 0.15 | 0.00 | 99 | 1012.7 |
| 20260507083839 | 39 | 0 | 0.0 | 1.0 | 0.00 | 0.15 | 0.00 | 99 | 1012.7 |
| 20260507083339 | 39 | 246 | 0.0 | 1.0 | 0.00 | 0.15 | 0.00 | 99 | 1012.8 |
| 20260507082335 | 39 | 0 | 0.0 | 1.0 | 0.00 | 0.17 | 0.00 | 99 | 1012.9 |
| 20260507081836 | 39 | 0 | 0.0 | 1.0 | 0.00 | 0.17 | 0.00 | 98 | 1012.9 |
| 20260507080836 | 40 | 0 | 0.0 | 1.0 | 0.00 | 0.20 | 0.00 | 98 | 1012.9 |
| 20260507080336 | 40 | 0 | 0.0 | 1.0 | 0.00 | 0.22 | 0.00 | 98 | 1012.9 |
| 20260507075837 | 40 | 0 | 0.0 | 1.0 | 0.00 | 0.23 | 0.00 | 98 | 1012.9 |
| 20260507075336 | 40 | 0 | 0.0 | 0.0 | 0.00 | 0.25 | 0.00 | 97 | 1012.8 |
| 20260507074836 | 40 | 0 | 0.0 | 0.0 | 0.00 | 0.30 | 0.00 | 96 | 1012.7 |
| 20260507074337 | 41 | 0 | 0.0 | 0.0 | 0.00 | 0.31 | 0.00 | 95 | 1012.7 |
| 20260507073836 | 41 | 0 | 0.0 | 0.0 | 0.00 | 0.32 | 0.00 | 95 | 1012.7 |
| 20260507073553 | 42 | 0 | 0.0 | 1.0 | 0.00 | 0.34 | 0.00 | 93 | 1012.7 |
| 20260507072834 | 42 | 0 | 0.0 | 2.0 | 0.00 | 0.36 | 0.00 | 91 | 1012.7 |
| 20260507072334 | 42 | 0 | 0.0 | 2.0 | 0.00 | 0.38 | 0.00 | 90 | 1012.8 |
| 20260507071334 | 43 | 0 | 0.0 | 0.0 | 0.00 | 0.39 | 0.00 | 90 | 1012.8 |
| 20260507070834 | 44 | 0 | 0.0 | 0.0 | 0.00 | 0.39 | 0.00 | 88 | 1012.8 |
| 20260507070334 | 44 | 0 | 0.0 | 1.0 | 0.00 | 0.39 | 0.00 | 85 | 1012.8 |
| 20260507065835 | 45 | 0 | 0.0 | 1.0 | 0.00 | 0.39 | 0.00 | 84 | 1012.8 |
| 20260507065332 | 45 | 29 | 0.0 | 1.0 | 0.00 | 0.42 | 0.00 | 83 | 1012.8 |
| 20260507064831 | 45 | 0 | 0.0 | 1.0 | 0.00 | 0.45 | 0.00 | 83 | 1012.8 |
| 20260507064332 | 46 | 0 | 0.0 | 2.0 | 0.00 | 0.45 | 0.00 | 82 | 1012.8 |
| 20260507063829 | 46 | 0 | 1.0 | 2.0 | 0.00 | 0.46 | 0.00 | 81 | 1012.8 |